• Processing (Info)

  • MPEC 2020-D101 : 2020 BG16

    The following Minor Planet Electronic Circular may be linked-to from your own Web pages, but must not otherwise be redistributed electronically.

    A form allowing access to any MPEC is at the bottom of this page.


    Read MPEC 2020-D100 Read MPEC 2020-D102


    M.P.E.C. 2020-D101                            Issued 2020 February 24, 02:35 UT
    
         The Minor Planet Electronic Circulars contain information on unusual
             minor planets and routine data on comets.  They are published
        on behalf of Division F of the International Astronomical Union by the
              Minor Planet Center, Smithsonian Astrophysical Observatory,
                              Cambridge, MA 02138, U.S.A.
    
                 Prepared using the Tamkin Foundation Computer Network
    
                                  MPC@CFA.HARVARD.EDU
                URL https://www.minorplanetcenter.net/    ISSN 1523-6714
    
                                    2020 BG16                                
    
    
    Observations:
         K20B16G* C2020 01 26.48341308 44 11.918+49 00 57.91         21.85wUED101F51
         K20B16G  C2020 01 26.49581108 44 11.186+48 59 29.35         21.97wUED101F51
         K20B16G  C2020 01 26.50824708 44 10.468+48 57 59.92         21.69wUED101F51
         K20B16G KC2020 01 27.25351 08 43 58.96 +47 32 18.2          21.7 RoED101291
         K20B16G KC2020 01 27.26156 08 43 58.59 +47 31 25.2          22.3 RoED101291
         K20B16G KC2020 01 27.26979 08 43 58.16 +47 30 30.4          21.9 RoED101291
         K20B16G  C2020 01 27.37332408 43 56.934+47 19 07.35         21.5 GVED101F51
         K20B16G  C2020 01 27.38612208 43 56.237+47 17 44.20         21.9 GVED101F51
         K20B16G  C2020 01 27.39894708 43 55.552+47 16 19.78         22.1 GVED101F51
    
    Observer details:
    291 LPL/Spacewatch II.  Observer M. J. Brucker.  1.8-m f/2.7 reflector + CCD.
    F51 Pan-STARRS 1, Haleakala.  Observers J. Bulger, T. Lowe, A. Schultz, M. 
       Willman, K. Chambers.  Measurers K. Chambers, S. Chastel, T. de Boer, L. 
       Denneau, J. Fairlamb, H. Flewelling, M. Huber, C.-C. Lin, E. Magnier, Y. 
       Ramanjooloo, R. Wainscoat, R. Weryk.  1.8-m Ritchey-Chretien + CCD.
    
    Orbital elements:
    2020 BG16                                                Earth MOID = 0.0687 AU
    Epoch 2020 May 31.0 TT = JDT 2459000.5                  Veres
    M  67.53558              (2000.0)            P               Q
    n   0.38247960     Peri.   83.96090     +0.46692681     -0.88328474
    a   1.8795932      Node   338.04946     +0.75999706     +0.42527774
    e   0.5212503      Incl.    6.49411     +0.45208828     +0.19734971
    P   2.58           H   24.8           G   0.15           U   8
    Residuals in seconds of arc
    200126 F51  0.0   0.2+    200127 291  0.3-  0.1+    200127 F51  0.2+  0.3-
    200126 F51  0.0   0.1+    200127 291  0.0   0.3+    200127 F51  0.1-  0.3+
    200126 F51  0.1+  0.4-    200127 291  0.1-  0.0     200127 F51  0.1-  0.0
    
    Ephemeris:
    2020 BG16                a,e,i = 1.88, 0.52, 6                   q = 0.8999
    Date    TT    R. A. (2000) Decl.     Delta      r    Elong.  Phase     V
    2020 01 25    08 44 49.8 +52 04 25   0.1304  1.0960   146.9    29.3    21.9
    ...
    2020 02 09    08 42 22.5 +31 21 38   0.2265  1.2025   160.7    15.7    22.8
    ...
    2020 02 17    08 43 37.2 +25 52 24   0.2913  1.2624   157.7    17.3    23.5
    ...
    2020 02 23    08 45 35.5 +22 56 56   0.3455  1.3080   153.7    19.6    24.1
    2020 02 24    08 46 00.5 +22 31 53   0.3550  1.3156   153.0    20.0    24.1
    2020 02 25    08 46 27.1 +22 07 50   0.3646  1.3232   152.2    20.4    24.2
    ...
    2020 03 02    08 49 37.4 +20 01 29   0.4249  1.3692   147.7    22.8    24.7
    ...
    2020 03 10    08 55 07.6 +17 48 39   0.5123  1.4304   141.6    25.5    25.3
    ...
    2020 03 25    09 08 36.5 +14 43 11   0.6963  1.5440   130.6    29.4    26.2
    
    A. U. Tomatic                (C) Copyright 2020 MPC           M.P.E.C. 2020-D101
    


    Read MPEC 2020-D100 Read MPEC 2020-D102


    MPEC number:

    Enter an MPEC number in one of the following forms:

    • 1997-B01 (the full form)
    • J97B01 (the packed version of the full form)
    • B01 (the abbreviated form)